2024/02/18 00:00:00,65.2, 6.7
2024/02/18 00:10:00,65.1, 6.9
2024/02/18 00:20:00,65.0, 6.8
2024/02/18 00:30:00,64.9, 6.4
2024/02/18 00:40:00,64.9, 6.2
2024/02/18 00:50:00,64.9, 6.3
2024/02/18 01:00:00,64.9, 6.4
2024/02/18 01:10:00,65.0, 6.5
2024/02/18 01:20:00,65.0, 6.4
2024/02/18 01:30:00,65.0, 6.6
2024/02/18 01:40:00,65.0, 6.6
2024/02/18 01:50:00,64.9, 7.1
2024/02/18 02:00:00,64.8, 6.9
2024/02/18 02:10:00,65.0, 6.9
2024/02/18 02:20:00,42.7, 6.8
2024/02/18 02:30:00,13.0, 7.2
2024/02/18 02:40:00,20.5, 7.3
2024/02/18 02:50:00, 0.0, 7.0
2024/02/18 03:00:00, 0.0, 7.2
2024/02/18 03:10:00, 0.0, 7.1
2024/02/18 03:20:00, 0.0, 7.0
2024/02/18 03:30:00, 0.0, 7.2
2024/02/18 03:40:00, 0.0, 6.9
2024/02/18 03:50:00, 0.0, 6.9
2024/02/18 04:00:00, 0.0, 7.1
2024/02/18 04:10:00, 0.0, 7.5
2024/02/18 04:20:00, 0.0, 7.4
2024/02/18 04:30:00, 0.0, 7.3
2024/02/18 04:40:00, 0.0, 7.4
2024/02/18 04:50:00, 0.0, 7.5
2024/02/18 05:00:00, 0.0, 7.7
2024/02/18 05:10:00, 0.0, 7.1
2024/02/18 05:20:00, 0.0, 7.7
2024/02/18 05:30:00, 0.0, 7.1
2024/02/18 05:40:00, 0.0, 7.3
2024/02/18 05:50:00, 0.0, 7.3
2024/02/18 06:00:00, 0.0, 7.4
2024/02/18 06:10:00,214.1, 7.5
2024/02/18 06:20:00,341.1, 7.8
2024/02/18 06:30:00,341.1, 7.6
2024/02/18 06:40:00,341.1, 7.9
2024/02/18 06:50:00,341.0, 7.4
2024/02/18 07:00:00,341.0, 7.7
2024/02/18 07:10:00,341.0, 7.6
2024/02/18 07:20:00,341.0, 7.8
2024/02/18 07:30:00,341.0, 7.5
2024/02/18 07:40:00,341.0, 7.8
2024/02/18 07:50:00,341.0, 8.2
2024/02/18 08:00:00,341.0, 8.7
2024/02/18 08:10:00,341.0, 8.8
2024/02/18 08:20:00,341.0, 9.1
2024/02/18 08:30:00,341.0, 9.5
2024/02/18 08:40:00,341.0, 9.6
2024/02/18 08:50:00,341.0,10.4
2024/02/18 09:00:00,340.9,11.0
2024/02/18 09:10:00,340.8,12.1
2024/02/18 09:20:00,340.8,14.0
2024/02/18 09:30:00,---,14.6
2024/02/18 09:40:00,---,15.3
2024/02/18 09:50:00, 0.0,16.3
2024/02/18 10:00:00,---,17.1
2024/02/18 10:10:00,64.7,17.5
2024/02/18 10:20:00,64.7,17.7
2024/02/18 10:30:00,64.7,18.6
2024/02/18 10:40:00,64.7,18.7
2024/02/18 10:50:00,64.6,19.3
2024/02/18 11:00:00,64.6,19.8
2024/02/18 11:10:00,64.6,20.0
2024/02/18 11:20:00,64.6,20.6
2024/02/18 11:30:00,64.6,21.0
2024/02/18 11:40:00,64.5,21.7
2024/02/18 11:50:00,64.5,22.3
2024/02/18 12:00:00,64.5,22.4
2024/02/18 12:10:00,64.6,22.6
2024/02/18 12:20:00,64.6,22.3
2024/02/18 12:30:00,64.6,22.9
2024/02/18 12:40:00,64.5,23.4
2024/02/18 12:50:00,64.5,23.4
2024/02/18 13:00:00,64.5,24.3
2024/02/18 13:10:00,64.6,24.0
2024/02/18 13:20:00,64.6,24.4
2024/02/18 13:30:00,64.6,24.4
2024/02/18 13:40:00,64.5,24.2
2024/02/18 13:50:00,64.5,24.2
2024/02/18 14:00:00,64.6,24.2
2024/02/18 14:10:00,64.7,24.9
2024/02/18 14:20:00,64.7,25.1
2024/02/18 14:30:00,64.7,25.2
2024/02/18 14:40:00,64.6,25.2
2024/02/18 14:50:00,64.6,25.3
2024/02/18 15:00:00,64.6,25.7
2024/02/18 15:10:00,64.6,25.9
2024/02/18 15:20:00,64.6,30.6
2024/02/18 15:30:00,64.6,32.4
2024/02/18 15:40:00,64.6,31.6
2024/02/18 15:50:00,64.6,33.8
2024/02/18 16:00:00,64.5,32.8
2024/02/18 16:10:00,64.5,32.1
2024/02/18 16:20:00,64.5,32.4
2024/02/18 16:30:00,64.5,32.2
2024/02/18 16:40:00,64.5,33.3
2024/02/18 16:50:00,64.5,27.2
2024/02/18 17:00:00,64.5,24.0
2024/02/18 17:10:00,64.6,23.6
2024/02/18 17:20:00,64.6,22.6
2024/02/18 17:30:00,64.6,22.0
2024/02/18 17:40:00,64.7,21.4
2024/02/18 17:50:00,64.7,21.5
2024/02/18 18:00:00,64.7,21.2
2024/02/18 18:10:00,64.7,21.4
2024/02/18 18:20:00,64.8,21.1
2024/02/18 18:30:00,64.7,21.1
2024/02/18 18:40:00,64.7,21.1
2024/02/18 18:50:00,64.7,20.6
2024/02/18 19:00:00,64.7,20.8
2024/02/18 19:10:00,64.7,20.7
2024/02/18 19:20:00,64.8,20.7
2024/02/18 19:30:00,64.7,20.5
2024/02/18 19:40:00,64.7,20.8
2024/02/18 19:50:00,64.7,20.3
2024/02/18 20:00:00,64.7,20.4
2024/02/18 20:10:00,64.7,20.4
2024/02/18 20:20:00,64.7,20.2
2024/02/18 20:30:00,64.7,20.4
2024/02/18 20:40:00,64.7,19.8
2024/02/18 20:50:00,64.7,19.7
2024/02/18 21:00:00,64.7,19.9
2024/02/18 21:10:00,64.7,19.9
2024/02/18 21:20:00,64.7,19.8
2024/02/18 21:30:00,64.7,19.5
2024/02/18 21:40:00,64.7,20.2
2024/02/18 21:50:00,64.8,20.1
2024/02/18 22:00:00,64.7,20.1
2024/02/18 22:10:00,64.7,20.1
2024/02/18 22:20:00,64.7,20.1
2024/02/18 22:30:00,64.7,20.1
2024/02/18 22:40:00,64.8,20.3
2024/02/18 22:50:00,64.8,20.4
2024/02/18 23:00:00,64.7,20.2
2024/02/18 23:10:00,64.7,20.4
2024/02/18 23:20:00,64.7,20.4
2024/02/18 23:30:00,64.7,20.4
2024/02/18 23:40:00,64.7,20.4
2024/02/18 23:50:00,64.8,20.4
